Weather reports worldwide

Advertisment
Bingley, United Kingdom (3344): temperature & dewpoint: 12.10.2018 18:00:00 - 18.10.2018 18:00:00 (BST)Bingley, United Kingdom (3344): temperature -20cm: 12.10.2018 18:00:00 - 18.10.2018 18:00:00 (BST)Bingley, United Kingdom (3344): wind speed & gusts: 12.10.2018 18:00:00 - 18.10.2018 18:00:00 (BST)Bingley, United Kingdom (3344): wind direction: 12.10.2018 18:00:00 - 18.10.2018 18:00:00 (BST)Bingley, United Kingdom (3344): reduced air pressure: 12.10.2018 18:00:00 - 18.10.2018 18:00:00 (BST)Bingley, United Kingdom (3344): visibility: 12.10.2018 18:00:00 - 18.10.2018 18:00:00 (BST)Bingley, United Kingdom (3344): precipitation: 12.10.2018 18:00:00 - 18.10.2018 18:00:00 (BST)
Date & Time tt [°C] td [°C] tt -20cm [°C] ff [km/h] ff [kn] fx [km/h] fx [kn] dd ppp [hPa] vv [km] rr [mm]
18.10.2018 18:00:00 - - - - - - - - - - -
18.10.2018 17:00:00 10,6 2,5 - 5 3 - - E 1027,7 45 0,0
18.10.2018 16:00:00 11,4 2,1 - 5 3 - - E 1027,9 30 0,0
18.10.2018 15:00:00 10,9 2,4 - 4 2 - - NNE 1028,2 35 0,0
18.10.2018 14:00:00 10,5 2,5 - 5 3 - - ENE 1028,5 30 0,0
18.10.2018 13:00:00 10,6 3,6 - 5 3 - - E 1029,0 15 0,0
18.10.2018 12:00:00 9,2 4,5 - 8 4 - - NNE 1029,6 30 0,0
18.10.2018 11:00:00 8,2 3,3 - 4 2 - - ENE 1029,9 27 0,2
18.10.2018 10:00:00 6,3 3,3 11,5 5 3 - - WNW 1030,0 35 0,0
18.10.2018 09:00:00 3,3 2,8 - 2 1 - - W 1029,9 30 0,0
18.10.2018 08:00:00 2,1 1,4 - 4 2 - - WSW 1029,7 35 0,0
18.10.2018 07:00:00 2,3 1,8 - 4 2 - - WSW 1029,2 45 0,0
18.10.2018 06:00:00 2,6 2,2 - 4 2 - - W 1028,7 35 0,0
18.10.2018 05:00:00 2,8 2,5 - 4 2 - - WNW 1028,6 35 0,0
18.10.2018 04:00:00 2,9 2,6 - 4 2 - - W 1028,3 30 0,0
18.10.2018 03:00:00 3,4 3,0 - 2 1 - - W 1028,1 35 0,0
18.10.2018 02:00:00 4,2 3,8 - 4 2 - - W 1028,0 35 0,0
18.10.2018 01:00:00 5,3 5,1 - 5 3 - - N 1027,8 27 0,0
18.10.2018 00:00:00 5,5 5,3 - 5 3 - - NW 1027,4 35 0,0
17.10.2018 23:00:00 5,4 4,9 - 2 1 - - W 1026,8 9 0,0
17.10.2018 22:00:00 7,4 6,9 - 9 5 - - NW 1025,8 14 0,0
17.10.2018 21:00:00 7,7 7,0 - 9 5 - - NW 1025,1 24 0,0
17.10.2018 20:00:00 8,4 7,5 - 5 3 - - WNW 1024,2 35 0,0
17.10.2018 19:00:00 8,9 7,6 - 5 3 - - WNW 1023,2 21 0,0
17.10.2018 18:00:00 10,3 8,3 - 9 5 - - WNW 1022,0 17 0,0
17.10.2018 17:00:00 11,8 8,7 - 9 5 - - WNW 1021,0 19 0,0
17.10.2018 16:00:00 12,4 9,3 - 11 6 - - WNW 1020,3 25 0,0
17.10.2018 15:00:00 12,3 8,9 - 8 4 - - WNW 1020,1 20 0,0
17.10.2018 14:00:00 12,6 9,9 - 8 4 - - W 1019,5 17 0,0
17.10.2018 13:00:00 12,5 9,5 - 5 3 - - W 1019,4 23 0,0
17.10.2018 12:00:00 12,4 9,3 - 9 5 - - W 1018,8 23 0,0
17.10.2018 11:00:00 12,5 9,5 - 9 5 - - W 1018,6 25 0,0
17.10.2018 10:00:00 11,3 9,5 12,0 8 4 - - WNW 1018,1 17 0,0
17.10.2018 09:00:00 10,8 9,8 - 8 4 - - WSW 1017,4 12 0,0
17.10.2018 08:00:00 9,8 9,3 - 8 4 - - WSW 1016,6 11 0,0
17.10.2018 07:00:00 10,0 9,5 - 9 5 - - SW 1015,8 9 0,0
17.10.2018 06:00:00 10,1 9,6 - 9 5 - - SW 1015,1 10 0,0
17.10.2018 05:00:00 10,4 9,9 - 9 5 - - SW 1014,6 14 0,0
17.10.2018 04:00:00 10,3 10,0 - 16 9 - - SW 1014,0 10 0,0
17.10.2018 03:00:00 10,6 10,1 - 16 9 - - WSW 1013,9 8 0,0
17.10.2018 02:00:00 10,4 10,0 - 21 11 - - SW 1014,0 10 0,0
17.10.2018 01:00:00 10,5 9,9 - 16 9 - - SSW 1013,6 16 0,0
17.10.2018 00:00:00 10,7 10,2 - 16 9 - - SSW 1013,5 7 0,0
16.10.2018 23:00:00 11,1 10,2 - 13 7 - - SSW 1013,5 35 0,0
16.10.2018 22:00:00 11,6 10,2 - 16 9 - - SSW 1013,4 25 0,0
16.10.2018 21:00:00 12,2 10,2 - 16 9 - - SSW 1013,4 40 0,0
16.10.2018 20:00:00 12,2 10,1 - 9 5 - - SSW 1013,0 50 0,0
16.10.2018 19:00:00 12,9 11,5 - 13 7 - - SSW 1012,6 14 0,0
16.10.2018 18:00:00 13,4 11,7 - 16 9 - - SSW 1012,2 18 0,0
16.10.2018 17:00:00 13,7 11,8 - 16 9 - - SW 1012,2 19 0,0
16.10.2018 16:00:00 13,8 12,2 - 15 8 - - SW 1012,5 15 0,0
16.10.2018 15:00:00 13,3 12,0 - 16 9 - - SW 1012,7 7 0,0
16.10.2018 14:00:00 13,8 11,7 - 16 9 - - SW 1012,7 14 0,0
16.10.2018 13:00:00 13,9 11,9 - 16 9 - - SSW 1012,7 12 0,0
16.10.2018 12:00:00 12,9 11,9 - 15 8 - - SSW 1013,1 9 0,0
16.10.2018 11:00:00 11,7 11,2 - 13 7 - - SSW 1013,4 5 0,0
16.10.2018 10:00:00 11,9 11,3 11,7 13 7 - - SSW 1013,7 9 0,0
16.10.2018 09:00:00 10,5 10,5 - 13 7 - - SSW 1014,0 6 0,0
16.10.2018 08:00:00 9,7 9,7 - 13 7 - - SSW 1013,8 4,4 0,0
16.10.2018 07:00:00 9,0 9,0 - 8 4 - - SSE 1013,7 3,2 0,0
16.10.2018 06:00:00 8,8 8,8 - 8 4 - - SE 1014,2 0,5 0,2
16.10.2018 05:00:00 8,7 8,7 - 13 7 - - SSE 1014,0 0,8 0,0
16.10.2018 04:00:00 8,5 8,5 - 8 4 - - SE 1014,5 0,2 0,0
16.10.2018 03:00:00 8,4 8,4 - 9 5 - - SE 1015,0 0,3 0,0
16.10.2018 02:00:00 8,4 8,4 - 9 5 - - SE 1015,4 0,2 0,2
16.10.2018 01:00:00 8,3 8,3 - 9 5 - - SE 1015,8 0,6 0,0
16.10.2018 00:00:00 8,4 8,3 - 9 5 - - ESE 1016,2 2,9 0,0
15.10.2018 23:00:00 8,6 8,2 - 11 6 - - ESE 1016,2 6 0,0
15.10.2018 22:00:00 8,6 8,2 - 9 5 - - ESE 1016,5 10 0,0
15.10.2018 21:00:00 8,7 8,0 - 9 5 - - E 1016,5 17 0,0
15.10.2018 20:00:00 8,7 7,9 - 11 6 - - E 1016,2 35 0,0
15.10.2018 19:00:00 8,8 7,5 - 11 6 - - E 1016,4 50 0,0
15.10.2018 18:00:00 9,0 7,3 - 11 6 - - E 1015,8 50 0,0
15.10.2018 17:00:00 9,5 7,8 - 11 6 - - ENE 1015,6 35 0,0
15.10.2018 16:00:00 9,6 7,5 - 13 7 - - E 1015,4 40 0,0
15.10.2018 15:00:00 9,9 8,3 - 9 5 - - NE 1015,2 30 0,0
15.10.2018 14:00:00 9,3 7,6 - 11 6 - - ENE 1015,1 50 0,0
15.10.2018 13:00:00 8,8 7,6 - 11 6 - - ENE 1015,2 35 0,0
15.10.2018 12:00:00 8,2 7,6 - 9 5 - - NNE 1015,2 14 0,0
15.10.2018 11:00:00 7,4 6,9 - 8 4 - - E 1015,2 17 0,0
15.10.2018 10:00:00 7,3 7,0 12,0 8 4 - - ENE 1015,3 10 0,0
15.10.2018 09:00:00 6,6 6,5 - 8 4 - - NE 1015,2 13 0,0
15.10.2018 08:00:00 6,2 6,1 - 5 3 - - NE 1014,5 19 0,0
15.10.2018 07:00:00 5,9 5,7 - 9 5 - - N 1013,7 22 0,0
15.10.2018 06:00:00 5,8 5,8 - 4 2 - - NE 1013,7 29 0,0
15.10.2018 05:00:00 5,3 5,3 - 2 1 - - NE 1013,5 17 0,0
15.10.2018 04:00:00 5,2 5,2 - 2 1 - - WNW 1013,6 23 0,0
15.10.2018 03:00:00 5,1 5,1 - 2 1 - - SSW 1013,6 29 0,0
15.10.2018 02:00:00 4,0 4,0 - 0 0 - - N 1013,4 10 0,0
15.10.2018 01:00:00 3,6 3,6 - 2 1 - - WNW 1013,2 7 0,2
15.10.2018 00:00:00 3,8 3,8 - 2 1 - - W 1013,2 6 0,0
14.10.2018 23:00:00 3,8 3,7 - 0 0 - - N 1013,3 8 0,0
14.10.2018 22:00:00 3,8 3,6 - 4 2 - - S 1013,1 17 0,0
14.10.2018 21:00:00 4,3 4,0 - 4 2 - - SE 1012,5 25 0,0
14.10.2018 20:00:00 4,9 4,3 - 4 2 - - SSW 1012,2 30 0,0
14.10.2018 19:00:00 6,5 5,6 - 4 2 - - SSW 1011,4 50 0,0
14.10.2018 18:00:00 8,3 5,8 - 2 1 - - E 1010,4 50 0,0
14.10.2018 17:00:00 9,2 6,5 - 4 2 - - NNW 1009,8 50 0,0
14.10.2018 16:00:00 8,2 6,4 - 5 3 - - N 1009,5 45 0,0
14.10.2018 15:00:00 7,8 6,7 - 8 4 - - ESE 1008,4 30 0,0
14.10.2018 14:00:00 7,7 6,8 - 13 7 - - E 1008,8 26 0,6
14.10.2018 13:00:00 7,8 7,0 - 4 2 - - E 1009,9 12 2,0
14.10.2018 12:00:00 8,1 6,8 - 4 2 - - SE 1009,4 12 1,4
14.10.2018 11:00:00 8,0 7,0 - 4 2 - - WNW 1009,1 7 2,4
14.10.2018 10:00:00 8,5 7,6 13,2 9 5 - - NW 1007,6 22 0,8
14.10.2018 09:00:00 8,7 8,1 - 11 6 - - NW 1007,7 50 0,0
14.10.2018 08:00:00 8,8 7,7 - 9 5 - - NNW 1007,3 40 0,0
14.10.2018 07:00:00 9,0 8,0 - 8 4 - - WNW 1006,5 35 0,0
14.10.2018 06:00:00 9,4 8,7 - 8 4 - - W 1005,8 50 0,0
14.10.2018 05:00:00 10,1 9,5 - 11 6 - - WNW 1005,2 10 0,0
14.10.2018 04:00:00 11,3 10,0 - 13 7 - - W 1004,3 10 0,0
14.10.2018 03:00:00 13,6 9,9 - 26 14 - - SW 1003,0 45 0,0
14.10.2018 02:00:00 14,1 10,0 - 18 10 - - SW 1002,8 50 0,0
14.10.2018 01:00:00 14,7 9,8 - 21 11 - - SSW 1002,0 50 0,0
14.10.2018 00:00:00 15,6 12,1 - 22 12 54 29 SW 1002,2 40 0,0
13.10.2018 23:00:00 16,6 12,3 - 22 12 54 29 SSW 1001,6 27 0,0
13.10.2018 22:00:00 17,5 12,8 - 28 15 55 30 SSW 1001,3 30 0,0
13.10.2018 21:00:00 18,0 13,5 - 26 14 57 31 S 1000,9 30 0,0
13.10.2018 20:00:00 17,8 14,5 - 22 12 48 26 S 1000,5 22 0,0
13.10.2018 19:00:00 18,1 15,0 - 26 14 50 27 S 999,7 45 0,0
13.10.2018 18:00:00 19,0 14,5 - 22 12 54 29 S 999,4 13 0,0
13.10.2018 17:00:00 19,4 14,0 - 26 14 55 30 S 999,1 35 0,0
13.10.2018 16:00:00 19,7 14,5 - 24 13 59 32 S 1000,0 40 0,0
13.10.2018 15:00:00 19,7 14,8 - 29 16 63 34 S 1000,2 40 0,0
13.10.2018 14:00:00 19,1 15,2 - 35 19 63 34 S 1000,5 40 0,0
13.10.2018 13:00:00 18,6 15,9 - 28 15 59 32 S 1001,0 30 0,0
13.10.2018 12:00:00 18,1 16,3 - 28 15 61 33 S 1001,4 28 0,4
13.10.2018 11:00:00 18,4 16,3 - 29 16 57 31 S 1001,3 40 0,2
13.10.2018 10:00:00 17,7 16,7 12,9 21 11 - - S 1001,8 14 0,4
13.10.2018 09:00:00 16,4 16,4 - 15 8 - - SSE 1002,1 30 0,2
13.10.2018 08:00:00 14,7 14,7 - 9 5 - - SE 1002,8 3,6 0,8
13.10.2018 07:00:00 14,4 14,3 - 8 4 - - SSE 1003,2 3,5 0,8
13.10.2018 06:00:00 14,5 14,3 - 11 6 - - SSW 1003,9 2,5 1,2
13.10.2018 05:00:00 15,4 15,1 - 8 4 - - SSW 1003,8 3,9 1,8
13.10.2018 04:00:00 15,8 15,3 - 11 6 - - SSW 1004,1 5 0,6
13.10.2018 03:00:00 16,5 15,7 - 18 10 - - SSW 1004,0 19 0,4
13.10.2018 02:00:00 16,8 16,2 - 18 10 - - SSW 1004,0 6 1,8
13.10.2018 01:00:00 16,7 16,0 - 22 12 52 28 SSW 1003,5 6 0,8
13.10.2018 00:00:00 16,6 15,8 - 21 11 59 32 S 1003,2 8 0,4
12.10.2018 23:00:00 17,5 15,2 - 29 16 63 34 SSW 1002,3 50 0,2
12.10.2018 22:00:00 17,4 15,3 - 31 17 67 36 SSW 1001,2 40 0,0
12.10.2018 21:00:00 17,7 14,8 - 37 20 78 42 SSW 1000,3 45 0,0
12.10.2018 20:00:00 17,3 15,0 - 35 19 72 39 SSW 999,7 35 0,4
12.10.2018 19:00:00 17,3 14,9 - 37 20 68 37 SSW 999,2 13 0,0
12.10.2018 18:00:00 17,5 14,5 - 37 20 76 41 SSW 998,7 45 0,0

tt = temperature
td = dewpoint
tt -20cm = temperature -20cm
ff = wind speed
fx = gusts
dd = wind direction
ppp = reduced air pressure
vv = visibility
rr = precipitation

Next stations